CZ-2C R/B

Last updated on Sun Apr 12 2026 00:02:18 GMT+0000 (Coordinated Universal Time)

1 54039U 22132E 26101.46220639 .00037213 00000+0 37597-3 0 9992 2 54039 97.2953 105.8529 0014230 336.3677 23.6927 15.65118754195493
UTC large
Height (km)
Speed (km/s)
/
Latitude / Longitude
Inclination (degrees)
Orbital Period (minutes)
Azimuth
Elevation
Range (km)
Doppler Factor

Next 0 passes for location: London (51.5072 / 0.1276)

Sorry there are no passes over London.
CZ-2C R/B